Lapse_Rate
3.7 3.4 3.3 3.2 3.0 3.0 2.8 2.6 2.4 2.2 2.0 1.9 1.6 1.2 1.2 0.9 0.4 -0.7 -1.4 -3.1 0.8 1.3 2.7 2.5 4.0 4.1 4.7 5.9 6.5 5.9 6.3 6.3 6.7 6.5 6.5 6.5 6.5 6.5 6.5 6.5 6.5 6.5 6.5 6.5 6.5 6.5 6.5 7.0 6.7 6.5 6.7 7.2 7.1 6.1
3.5 3.4 3.3 3.2 3.1 2.9 2.8 2.6 2.7 2.6 2.3 2.1 1.9 1.6 1.4 1.1 0.6 -0.9 0.6 -2.9 -2.7 1.2 2.4 1.0 3.0 3.5 4.5 5.4 5.7 4.3 6.2 6.2 7.0 6.5 6.5 6.5 6.5 6.5 6.5 6.5 6.5 6.5 6.5 6.5 6.5 6.5 6.7 7.3 7.0 6.8 6.6 7.2 7.3 5.7
3.4 3.4 3.2 3.1 3.2 3.1 3.0 3.0 2.9 2.8 2.7 2.7 2.5 2.1 1.9 1.6 0.9 -0.5 -1.8 -1.7 -0.4 1.9 3.0 4.7 5.1 3.9 4.5 4.1 4.5 6.9 5.8 4.9 6.1 5.2 6.8 6.5 6.5 6.5 6.5 6.5 6.5 6.5 6.9 6.5 6.5 6.5 6.6 6.9 7.4 7.4 7.5 6.9 6.1 5.2
3.2 3.2 3.2 3.3 3.2 3.2 3.1 3.0 2.8 3.0 3.2 3.3 3.1 2.7 2.3 1.1 0.2 -0.7 -0.7 -0.1 0.6 1.1 5.3 5.7 4.7 3.6 3.7 5.0 5.4 5.8 6.0 4.9 6.1 6.8 7.0 6.5 6.5 7.0 6.5 6.5 6.5 6.7 6.7 6.5 6.5 6.6 6.5 6.1 6.0 6.7 6.9 6.4 5.4 5.9
3.4 3.5 3.4 3.5 3.5 3.4 3.1 3.0 3.4 3.7 3.6 3.5 3.3 2.5 2.3 2.3 0.7 0.2 1.1 1.6 2.0 3.2 6.1 6.3 4.8 4.4 4.7 6.1 6.0 5.5 5.3 5.9 6.5 7.0 6.6 6.5 7.0 6.6 6.8 6.6 6.5 6.9 6.5 6.5 6.5 6.8 6.7 7.0 7.5 7.1 7.3 7.1 7.3 6.3
3.7 3.6 3.7 3.8 3.8 3.9 3.9 3.9 3.8 3.8 3.8 3.6 3.1 2.4 2.6 2.3 2.3 3.2 3.5 3.1 2.3 2.6 4.2 6.5 5.2 4.6 5.3 6.2 6.0 5.8 6.1 6.5 6.7 7.2 6.9 7.1 2.6 6.8 6.5 6.5 6.7 6.6 6.5 7.3 6.9 7.1 6.9 6.4 6.5 6.8 7.1 7.0 6.9 7.1
3.9 4.0 4.2 4.4 4.5 4.4 4.4 4.2 4.2 4.1 4.0 3.9 3.1 2.6 2.9 2.3 2.2 3.8 4.8 5.5 4.2 3.4 4.6 6.6 6.8 5.7 5.1 5.6 6.4 6.5 6.2 6.7 6.9 7.1 7.0 7.1 7.0 7.1 6.5 6.5 6.8 6.3 5.4 4.5 7.0 6.2 6.7 7.1 7.1 5.5 6.2 6.5 6.7 4.2
4.3 4.5 4.5 4.6 4.6 4.7 4.9 4.9 4.5 4.5 4.7 4.0 2.7 2.6 3.4 6.2 6.9 6.6 6.1 5.9 5.5 5.3 4.9 6.5 6.5 6.4 5.2 7.0 7.1 6.5 7.3 7.3 7.4 7.2 6.3 6.9 7.0 6.9 6.5 6.7 6.2 4.6 2.4 4.5 4.5 3.9 6.6 6.4 5.8 5.5 5.0 4.7 5.1 4.3
4.4 4.5 4.8 4.8 5.0 5.3 5.4 5.7 6.4 6.4 5.8 3.6 3.1 3.4 4.0 4.5 5.5 6.6 7.1 7.2 6.3 6.0 6.2 6.4 6.5 6.5 5.0 5.6 6.2 7.3 7.3 6.5 6.2 6.7 6.8 7.0 6.5 6.5 6.6 6.9 6.9 5.8 5.4 4.3 1.3 3.7 5.7 4.9 4.8 4.8 4.5 3.9 5.5 4.2
5.9 6.0 6.4 6.7 6.5 6.5 6.4 6.5 7.2 7.3 5.9 3.2 2.3 2.8 3.4 4.8 6.1 6.6 4.9 5.3 4.7 3.0 4.1 6.7 6.2 6.5 5.7 5.9 6.9 6.9 6.9 6.5 6.5 6.6 7.3 6.5 6.5 6.5 6.2 6.0 5.8 5.0 4.4 2.5 5.7 6.5 6.1 5.3 4.9 4.7 4.6 4.5 4.1 3.7
6.1 6.4 6.7 7.4 7.6 7.3 7.1 7.2 7.4 6.8 5.5 3.8 3.9 3.5 4.3 4.6 6.0 5.0 5.1 5.9 5.1 6.5 5.5 6.2 6.1 6.6 4.6 6.6 6.5 6.9 6.5 6.5 6.5 6.5 6.5 6.5 6.5 6.8 6.3 6.2 6.5 6.5 6.2 6.0 5.8 5.7 5.4 5.1 5.0 4.8 4.5 4.3 4.0 3.8
5.8 6.3 6.9 7.5 7.9 7.6 7.5 7.4 7.5 5.8 5.2 5.5 5.2 3.7 3.6 2.2 3.4 6.2 6.5 6.1 6.5 6.5 6.4 6.8 6.6 6.0 6.0 5.5 6.8 6.7 6.5 6.5 6.5 6.9 6.5 6.5 6.5 6.7 6.0 6.5 6.6 6.3 6.1 5.9 5.9 6.0 5.6 5.4 5.3 5.0 4.6 4.4 4.2 4.2
6.3 6.8 7.3 7.9 7.9 7.7 7.6 7.5 6.8 5.4 3.5 2.1 1.8 3.0 4.0 3.8 6.5 6.5 6.5 6.5 6.5 6.4 5.3 5.3 6.6 5.8 6.1 6.3 6.9 6.5 6.5 6.5 6.9 6.5 6.5 6.5 6.9 7.0 6.2 6.6 6.1 6.2 6.4 6.3 6.5 6.8 7.0 6.5 5.7 5.5 5.4 5.6 5.8 5.7
6.6 7.0 7.9 8.0 8.0 7.5 7.1 7.3 6.5 5.2 4.3 3.0 3.9 6.5 6.5 6.5 6.5 6.5 6.5 6.4 5.5 3.9 5.6 6.0 6.9 6.8 6.6 6.6 6.6 6.5 6.5 6.6 6.5 6.5 6.5 6.5 7.0 6.7 6.6 7.4 7.0 6.4 7.0 6.7 6.6 6.8 7.7 7.6 7.1 6.5 6.2 6.1 6.3 6.3
6.6 7.6 8.1 7.4 7.6 7.2 7.5 7.5 7.2 6.0 5.9 5.6 4.8 6.5 6.5 4.9 2.3 2.5 1.3 3.0 4.5 4.9 6.3 6.7 6.7 6.9 6.6 6.5 6.5 6.5 6.5 6.5 6.5 6.5 6.5 7.2 7.1 6.7 7.0 7.8 7.4 7.7 7.9 6.6 6.4 6.4 6.9 8.2 8.0 7.8 6.9 6.7 6.7 7.2
7.0 7.6 7.6 7.4 7.6 7.6 7.8 6.7 5.4 5.4 6.4 4.8 4.8 6.1 5.3 6.0 5.7 3.1 3.0 5.1 6.4 6.7 6.7 6.9 6.6 6.5 6.5 6.5 6.5 6.5 6.5 6.5 6.5 6.6 7.4 7.1 6.9 6.9 6.8 7.6 7.8 6.8 7.0 6.2 5.8 5.9 6.2 6.4 8.0 8.2 7.6 7.3 7.1 8.2
8.0 7.6 8.1 7.8 7.9 8.2 8.5 6.6 6.1 6.9 6.7 5.0 5.2 2.4 5.0 6.0 5.4 5.3 5.6 6.3 3.9 5.7 6.5 6.3 6.5 6.5 6.6 6.5 6.5 6.5 6.5 6.5 7.1 7.4 7.7 6.1 6.0 5.8 5.8 6.7 6.7 5.9 5.5 5.3 4.9 5.0 5.3 6.3 6.8 7.4 7.2 7.4 7.4 7.9
6.5 7.0 7.9 8.4 8.4 8.1 6.1 6.6 6.9 6.6 6.4 4.3 5.9 4.6 3.4 4.9 5.3 4.9 3.9 2.8 4.7 5.1 5.5 6.3 5.8 6.5 6.5 6.5 6.5 6.6 7.1 7.5 7.5 7.1 7.4 5.4 5.0 4.9 5.7 5.5 5.6 5.3 5.0 4.8 4.7 4.7 5.2 5.9 6.6 8.4 8.2 7.8 7.4 7.9
6.6 6.8 6.7 7.2 7.9 7.0 7.2 6.5 6.5 6.6 5.8 4.8 4.5 4.0 4.0 4.1 2.2 2.4 2.7 1.6 2.2 2.4 2.7 3.7 6.5 6.5 6.5 6.8 6.8 6.8 6.7 6.6 6.8 6.5 5.9 3.7 4.4 4.3 4.3 4.8 5.1 5.1 5.1 5.1 5.2 5.7 6.4 6.7 8.2 8.4 8.8 8.0 8.1 8.7
6.4 6.1 6.0 6.0 6.7 6.6 6.4 4.4 4.0 5.3 6.0 4.8 3.3 4.4 3.7 4.0 2.7 0.8 0.4 0.7 1.7 1.2 3.5 6.3 6.5 5.9 5.6 5.0 4.5 4.9 4.7 4.4 4.8 5.3 5.9 5.8 5.2 3.7 5.0 4.9 5.5 5.4 5.6 5.4 5.5 7.3 6.3 7.0 7.3 7.4 7.4 8.8 8.4 8.5
4.1 4.5 4.6 4.0 5.2 6.0 4.9 3.9 3.7 2.9 1.6 4.0 0.6 0.4 1.9 -0.8 0.6 0.9 1.0 0.1 1.5 2.1 5.7 2.0 2.6 2.8 0.7 1.3 2.1 3.0 3.4 3.2 4.4 5.4 6.0 5.7 5.9 5.3 5.5 5.6 5.3 5.9 5.9 5.7 5.3 5.2 5.8 6.3 6.7 7.0 6.9 7.2 8.3 8.9
2.5 4.4 -0.1 0.4 6.1 3.9 2.1 -1.7 0.3 -0.2 1.3 1.3 1.1 -3.0 0.9 3.1 2.0 0.5 -2.3 0.8 2.2 2.8 1.5 1.4 2.0 2.8 2.7 2.3 2.9 1.7 3.7 2.6 2.5 3.2 6.3 6.4 6.3 5.7 5.8 5.9 5.5 5.5 5.1 5.3 5.3 5.1 5.5 6.0 6.0 6.9 7.7 7.3 7.6 6.8
2.6 1.2 -2.6 -1.1 2.7 3.9 3.3 -4.8 0.7 -3.6 4.3 1.9 -1.8 2.9 1.7 1.0 0.2 -3.4 2.5 1.0 1.4 0.3 0.8 1.5 1.3 0.4 2.0 0.5 0.1 1.2 1.4 2.3 3.3 3.5 4.3 5.1 4.8 5.0 5.0 5.1 5.4 4.7 4.7 5.5 5.4 5.1 5.0 6.0 6.7 7.1 6.5 6.2 5.8 5.4
-1.2 -4.4 -1.8 -2.4 -3.3 2.6 -4.4 -2.8 -4.5 -1.8 -1.2 3.5 6.4 6.5 5.7 2.1 -2.6 2.1 6.5 3.6 1.7 -0.4 0.6 1.1 0.3 1.5 0.7 -0.7 1.5 2.8 3.2 2.3 3.0 3.2 3.2 3.7 4.3 4.6 4.6 5.1 5.1 4.8 4.9 5.2 4.8 4.7 4.7 4.8 6.4 5.8 5.2 4.6 4.2 4.0
2.3 2.1 -1.1 1.8 -7.3 0.3 6.4 5.5 2.3 4.1 6.5 6.3 6.5 6.5 4.5 -1.2 6.5 6.5 6.5 4.0 -0.4 -0.6 1.1 0.9 0.6 1.2 2.7 2.6 2.3 2.6 1.9 2.3 2.6 3.0 3.6 3.0 4.1 3.1 3.4 4.0 4.2 4.5 4.8 3.8 4.2 4.5 4.6 4.7 4.4 4.0 3.9 3.8 3.2 3.1
6.5 -1.5 2.1 -0.5 -0.3 5.0 5.3 6.5 6.5 6.5 6.5 6.5 6.2 2.5 0.7 5.4 6.5 6.5 6.0 1.4 -0.2 -0.4 0.6 1.3 2.6 2.6 1.8 1.8 2.7 3.2 3.0 1.1 1.2 1.5 2.9 2.4 2.6 3.5 4.4 4.6 4.7 4.8 4.8 3.8 3.6 3.2 3.8 4.3 4.0 3.3 3.3 3.7 6.4 6.4
6.5 4.4 -2.7 -2.0 -1.2 -1.0 2.7 2.0 3.2 4.1 6.5 6.5 6.2 5.7 6.5 6.5 6.5 6.1 2.6 0.5 1.4 1.4 1.5 3.2 3.6 3.4 4.0 4.2 2.3 1.7 0.8 -1.1 0.3 1.6 0.2 0.8 2.1 2.7 3.1 3.2 3.5 4.6 5.0 3.4 2.7 2.3 3.0 3.7 3.9 3.8 3.9 4.2 4.2 4.3
-2.1 -2.2 5.9 0.4 0.4 -1.4 3.5 5.4 6.5 6.5 6.3 4.2 5.7 6.5 6.5 6.5 6.5 4.0 3.3 2.0 1.0 -0.4 -0.1 0.3 0.9 1.7 2.3 2.0 0.4 0.1 -0.6 -4.2 -5.4 -4.5 -2.5 -0.8 -0.6 -0.1 0.6 0.9 1.4 4.2 5.0 4.4 1.9 2.7 2.6 2.9 3.2 3.5 3.6 3.6 4.7 6.0
-0.8 -0.9 -0.0 1.8 -0.1 0.8 2.8 4.9 3.4 2.1 3.9 4.4 6.5 6.5 5.3 2.0 0.5 0.4 1.2 -0.5 -4.2 -1.9 2.0 3.4 2.1 -0.7 -0.4 -2.2 -3.6 -4.1 -4.1 -3.8 -2.0 -0.9 0.7 2.4 3.2 4.0 2.2 2.5 2.5 2.5 2.6 3.4 5.9 8.4 4.6 2.7 3.2 3.7 4.0 5.6 6.6 6.7
0.3 -1.6 1.1 -1.4 4.9 6.5 2.8 1.0 1.9 -0.5 0.2 1.1 0.7 1.0 1.1 -0.4 -1.8 -2.9 -1.4 -2.8 -3.2 -3.0 -3.1 -1.4 -1.1 -1.3 -0.6 -2.2 -0.7 -1.0 -3.9 -3.8 -2.3 0.7 2.7 3.7 4.3 4.4 3.4 3.6 3.6 3.6 3.2 2.5 2.4 2.7 5.4 6.6 6.4 4.9 3.4 4.4 4.3 4.0
-0.2 0.8 2.1 2.0 3.4 -0.5 -3.3 -5.4 -7.7 -6.1 -6.3 -6.1 -5.6 -2.1 -0.4 -3.0 -4.8 -2.9 -3.8 -4.9 -5.1 -4.5 -3.2 -2.1 -1.6 -1.6 -2.2 -1.9 -2.7 -1.9 2.3 -0.3 -1.4 -0.4 0.7 1.8 2.2 2.7 3.4 3.9 4.2 4.1 3.2 3.0 2.6 2.5 2.5 3.2 3.7 4.0 4.0 2.4 1.0 5.2
-0.8 1.8 3.5 6.6 1.3 -3.6 -6.6 -6.1 -7.8 -6.1 -6.8 -5.5 -4.4 -7.6 -4.2 -2.2 -1.9 -1.4 -3.1 -6.6 -5.9 -3.0 2.8 2.5 1.9 4.0 0.3 -0.2 -0.6 0.1 4.2 3.4 2.6 1.8 0.5 1.7 2.8 3.6 4.0 4.1 4.1 3.6 2.9 3.2 3.1 2.4 2.5 2.3 2.6 3.2 2.5 1.9 1.7 2.0
-1.0 0.0 -0.2 -0.2 0.7 0.3 -1.3 -1.7 -1.9 -0.3 -2.9 -3.1 -2.4 -3.5 -4.1 -1.4 -0.1 -0.8 -3.5 -5.0 -2.0 -1.5 -1.0 -0.5 -0.6 -0.3 0.8 0.5 0.9 1.3 4.1 2.2 1.7 6.3 9.3 9.6 9.6 9.2 8.4 6.9 5.0 4.3 3.6 3.1 3.2 3.3 3.2 3.1 2.7 2.7 3.1 3.0 2.7 2.8
Wind_Speed
19 20 20 19 18 18 20 22 22 22 23 23 23 23 22 22 19 4 2 8 2 1 1 4 3 3 2 1 2 2 1 1 1 3 3 2 3 3 2 3 5 6 6 4 3 4 7 8 6 5 3 7 8 5
18 18 17 17 18 19 20 20 20 21 22 22 21 21 20 19 19 3 3 5 4 1 2 1 2 2 3 1 2 1 1 1 0 1 2 1 4 2 2 4 2 4 5 3 7 7 0 7 8 3 4 8 9 6
17 17 17 17 17 18 18 18 19 20 21 22 22 20 17 16 15 8 3 5 1 2 2 1 3 5 4 5 2 1 2 1 2 1 2 1 6 3 4 6 3 5 4 4 1 9 7 6 10 10 9 11 10 10
16 16 16 15 16 16 17 19 20 20 20 21 21 18 15 14 14 10 4 6 2 2 1 2 1 4 7 4 3 2 3 2 2 2 2 3 3 4 3 2 3 1 5 5 9 11 9 5 4 8 10 9 11 12
14 14 14 14 15 16 17 18 18 19 20 20 21 18 13 7 11 14 8 6 4 2 0 1 3 4 5 3 5 4 4 3 1 2 3 3 2 3 1 2 4 4 5 4 7 5 4 9 9 10 14 16 15 11
12 13 13 13 14 15 15 17 19 20 21 22 20 14 10 7 2 1 1 3 7 2 1 0 1 4 5 2 4 3 2 1 1 2 1 2 1 2 2 3 4 5 9 8 6 8 9 15 15 13 11 15 13 12
11 11 12 12 13 15 16 18 19 21 22 22 15 9 9 9 6 3 2 4 8 2 1 1 0 1 3 2 1 1 1 1 2 2 3 2 2 5 3 4 10 12 13 15 11 10 9 4 7 15 13 13 11 1
8 9 11 12 14 16 16 18 20 21 23 20 9 5 4 8 5 3 5 10 3 2 2 2 1 1 2 1 1 1 1 2 3 2 1 3 2 3 5 7 12 14 16 7 13 12 12 12 12 9 6 6 4 6
10 12 13 14 15 17 18 18 17 19 21 9 4 6 5 3 2 1 9 6 8 1 2 1 0 1 0 1 1 2 2 3 1 3 3 3 2 4 6 11 12 13 9 14 15 11 8 7 9 8 8 9 6 6
12 12 13 14 14 16 18 18 19 18 16 3 2 2 2 1 9 3 4 2 3 3 2 1 1 1 1 0 2 2 1 3 3 3 3 4 1 2 8 9 8 9 9 8 5 8 11 12 11 10 9 7 7 7
14 13 14 15 15 15 18 19 17 14 8 3 4 1 1 7 1 3 2 2 3 1 1 0 3 2 3 3 3 3 2 2 3 3 4 3 3 2 8 8 9 10 10 10 7 7 8 8 8 8 8 9 9 9
15 15 15 16 15 15 18 17 10 3 1 1 2 3 2 4 2 3 1 1 1 1 1 1 1 3 2 2 3 3 3 1 6 3 3 3 2 3 6 6 8 8 9 9 9 8 8 10 9 8 7 7 7 6
16 16 16 17 17 16 16 7 5 4 4 2 3 2 2 2 3 2 1 1 0 2 3 2 3 3 2 3 3 3 5 6 3 4 3 2 1 4 5 4 4 6 7 8 10 10 9 7 8 7 6 6 6 6
17 16 15 17 16 10 6 9 4 3 3 2 3 4 1 2 3 3 2 1 1 2 2 2 3 3 2 3 3 4 3 2 4 4 2 2 1 2 3 4 5 7 7 9 10 10 9 8 6 6 6 6 6 6
14 15 16 6 9 8 11 10 5 2 0 2 2 4 5 2 2 1 1 2 2 1 2 3 3 2 2 4 3 2 2 3 2 1 2 2 3 3 5 5 6 7 7 8 8 8 9 8 7 5 5 6 6 5
12 12 3 5 9 13 14 7 2 1 2 2 4 3 2 1 1 1 2 2 1 3 2 1 3 3 4 3 4 2 2 2 2 2 3 3 2 2 4 5 5 6 6 6 7 8 8 8 8 6 4 5 6 4
14 2 5 14 15 16 13 1 1 3 4 4 3 1 2 2 3 1 2 2 2 1 1 1 4 6 3 2 1 1 1 1 1 2 3 3 1 1 2 3 4 5 6 6 7 8 8 8 7 5 5 6 6 5
3 12 15 17 14 8 0 2 2 3 5 2 2 1 2 2 1 2 2 1 0 0 1 3 2 2 3 3 2 3 3 2 1 1 3 3 2 0 1 2 3 4 6 6 6 7 7 7 7 5 6 7 7 5
11 14 14 10 6 2 2 2 2 3 3 1 1 1 0 1 2 3 2 2 1 2 1 1 2 3 3 3 2 2 2 2 3 2 2 3 3 1 1 2 3 4 5 6 7 6 6 7 6 6 6 6 6 5
13 5 7 6 3 1 2 3 1 2 2 2 1 1 1 1 2 2 2 3 2 1 1 3 3 2 3 2 2 2 1 2 2 2 3 4 3 2 2 2 3 5 6 6 6 9 5 4 4 4 5 6 4 5
6 5 6 5 1 1 1 2 2 2 2 1 2 2 1 2 2 2 1 3 1 3 3 3 3 2 1 1 0 1 2 3 4 4 2 3 3 3 3 2 3 4 4 5 6 6 6 4 5 5 5 5 6 5
2 7 2 5 1 2 3 2 1 3 1 1 1 2 1 1 1 1 3 1 3 2 3 3 2 3 2 3 3 4 3 4 3 4 7 6 3 3 3 2 3 4 4 5 5 5 5 5 5 6 6 6 7 7
4 4 4 5 4 2 2 2 2 5 0 3 2 2 2 2 1 2 2 2 3 2 2 2 1 1 2 1 2 3 5 5 4 5 5 5 4 4 4 5 4 4 5 6 4 5 5 8 7 6 6 7 7 7
8 4 3 2 2 2 2 4 2 2 2 3 3 4 3 2 4 2 3 2 2 0 3 4 4 2 1 2 3 3 4 5 5 5 5 4 5 6 6 6 5 6 6 6 5 6 6 6 9 6 6 7 7 7
4 3 3 2 2 4 4 5 5 3 2 1 2 4 3 3 2 2 2 2 1 2 4 3 3 4 4 3 3 4 3 5 5 6 5 6 6 4 6 6 7 8 5 5 7 7 7 6 6 6 8 8 9 10
1 3 2 3 2 1 3 1 2 3 1 2 4 2 1 2 2 5 3 2 2 3 4 7 6 3 4 5 4 4 3 3 3 4 5 5 6 6 8 7 7 9 5 7 6 7 8 7 7 8 9 12 17 12
1 3 1 1 2 2 1 1 2 2 1 4 2 1 2 1 4 3 2 3 3 3 4 5 6 5 5 3 3 4 3 4 5 3 1 3 5 7 7 7 10 9 4 6 6 7 8 9 8 8 9 10 9 8
2 2 2 1 0 0 2 1 2 4 3 2 2 2 3 5 4 1 1 1 2 2 1 2 2 2 2 3 2 3 3 1 3 4 5 7 8 8 10 9 11 25 12 9 9 8 9 9 9 10 11 11 10 9
1 1 1 2 1 2 4 4 4 3 1 3 3 3 4 2 2 2 3 2 2 1 3 3 1 1 3 3 3 4 3 3 3 5 10 7 6 5 6 8 8 7 7 7 18 17 13 12 12 12 14 10 9 5
1 0 1 0 2 4 2 2 2 1 1 1 3 3 3 3 2 2 2 3 3 2 1 2 2 2 3 3 5 5 4 6 7 8 7 9 7 5 3 5 6 7 6 7 8 9 17 14 12 7 7 5 5 5
0 0 1 2 4 2 1 2 2 2 3 2 2 2 3 4 4 2 2 2 2 1 1 2 3 3 3 4 3 4 7 3 8 12 11 8 8 9 9 9 9 8 7 8 8 8 8 8 8 9 9 9 9 11
1 1 1 3 4 3 3 3 2 2 3 3 2 1 3 2 3 3 2 2 1 0 2 0 2 4 3 4 5 6 15 8 7 8 10 9 9 11 11 10 10 8 8 9 10 9 10 11 9 9 9 10 10 10
2 1 1 2 4 5 3 4 4 5 2 2 2 2 2 2 5 3 2 4 4 3 4 4 3 4 7 8 8 8 12 7 12 19 23 23 24 19 9 4 7 9 11 10 9 8 10 13 11 12 12 11 11 10
Wind_Direction
74 68 63 57 53 50 45 41 36 33 31 29 27 25 23 21 21 49 75 13 19 112 147 187 162 136 125 203 221 136 206 134 125 208 234 216 233 196 229 230 194 190 188 203 178 236 266 150 132 219 3 306 289 252
72 67 63 56 49 45 41 37 32 29 27 24 22 21 20 21 15 35 69 12 345 68 80 41 62 38 36 11 137 138 345 133 325 144 218 228 222 191 218 255 187 224 217 193 212 242 299 196 269 290 293 277 272 251
70 63 56 50 44 39 34 30 27 22 19 17 16 16 16 22 23 50 89 3 359 91 92 130 44 32 48 17 326 246 212 184 152 168 162 208 241 171 206 227 224 229 166 237 249 264 269 278 285 277 276 271 274 260
64 57 51 45 40 33 28 23 20 14 11 10 10 9 12 33 46 60 66 355 54 74 87 73 360 35 330 5 49 46 128 126 112 181 194 216 246 205 247 347 257 328 166 238 260 280 292 277 257 298 299 287 274 269
55 49 45 37 31 27 22 17 10 5 3 2 2 6 5 44 86 82 76 49 57 23 322 75 129 355 356 19 60 82 100 113 146 170 211 229 266 223 193 263 246 196 217 227 277 324 269 293 310 302 301 290 281 249
46 41 34 29 23 20 15 9 4 359 356 356 358 3 13 22 17 152 79 38 28 15 64 25 358 2 360 32 105 120 136 115 170 204 206 244 228 225 240 240 352 319 328 317 297 332 292 287 293 299 313 311 289 243
32 27 21 16 11 8 3 1 354 350 351 352 0 20 37 45 62 62 74 338 9 29 67 126 48 326 292 288 148 166 160 200 218 196 221 228 239 201 243 250 358 337 326 313 314 322 295 312 321 323 316 319 312 185
15 9 5 2 360 354 349 347 347 346 346 351 4 53 66 90 81 59 14 341 4 87 49 132 192 213 10 210 217 289 233 208 214 244 187 218 183 225 244 7 338 333 326 324 351 329 290 301 312 331 341 354 20 34
356 352 349 348 348 346 342 342 344 340 342 1 79 105 53 40 42 308 344 50 59 42 126 112 73 336 205 114 257 220 230 247 49 247 233 182 189 224 0 331 335 331 316 298 311 306 339 359 3 5 7 12 44 50
342 339 333 333 335 337 340 339 339 341 345 90 70 55 49 293 312 325 18 31 21 349 34 102 35 333 243 156 211 252 228 240 245 233 143 219 182 122 355 336 326 322 323 323 337 8 357 12 16 22 23 21 42 64
328 328 324 324 327 328 332 332 340 345 17 20 2 322 260 325 49 29 45 32 340 40 110 291 210 289 189 229 248 213 206 218 242 198 213 199 195 10 331 338 3 12 16 23 23 25 24 30 22 20 25 29 34 39
314 318 318 317 320 325 325 324 346 39 277 320 329 62 35 32 52 75 13 310 247 96 185 228 265 234 262 216 219 189 242 166 250 127 213 234 85 322 326 347 7 11 17 21 19 23 31 30 20 34 34 38 39 36
310 311 315 315 317 321 320 327 24 84 101 57 44 51 10 347 37 145 229 60 331 197 211 195 280 234 219 219 239 201 227 226 119 200 229 71 20 354 341 337 359 2 20 20 17 18 23 38 42 38 35 26 24 23
308 310 311 320 331 335 347 7 102 66 54 54 19 299 179 262 248 185 154 154 245 233 294 290 254 242 211 213 232 239 234 157 223 222 192 132 111 318 343 345 12 11 16 28 15 7 9 18 21 24 25 13 4 6
319 315 313 342 3 11 2 1 1 64 255 264 131 242 221 269 245 283 301 307 229 285 331 280 250 254 247 261 220 254 236 245 337 20 98 129 79 17 352 358 16 10 15 10 3 357 353 354 356 353 4 360 357 349
329 313 259 349 346 336 328 349 42 113 225 183 222 247 171 298 260 214 196 239 48 329 257 251 269 274 244 231 224 230 282 246 143 131 143 149 87 12 352 349 26 8 1 357 355 348 342 344 340 337 348 359 351 340
323 256 292 333 322 317 315 101 171 226 233 208 243 237 185 212 232 203 167 131 7 197 238 224 254 232 291 239 196 5 215 106 209 141 122 108 101 330 342 347 16 3 348 341 344 340 328 332 330 330 335 345 344 317
245 285 306 314 327 305 148 154 234 235 249 217 220 200 204 229 194 145 133 47 329 162 169 228 341 258 254 209 217 189 201 183 147 158 162 145 149 196 335 340 336 327 326 326 328 321 315 325 318 309 317 324 317 305
307 308 312 319 320 294 275 264 252 256 239 194 250 135 80 78 52 68 78 46 67 32 133 74 228 216 228 207 206 187 188 205 214 199 189 175 175 195 282 304 308 310 318 317 322 317 308 307 311 312 312 315 311 317
316 342 341 332 314 193 281 291 357 288 297 321 343 35 327 31 73 63 58 30 54 90 127 213 223 205 200 198 196 192 176 172 191 249 227 199 198 220 291 316 313 312 308 313 313 323 304 310 314 320 311 307 338 320
6 351 1 13 92 167 44 347 334 15 311 334 3 8 294 6 30 26 15 351 99 214 231 209 216 213 146 30 205 182 194 185 210 217 234 205 211 229 266 279 290 303 308 310 309 310 326 301 306 307 306 302 314 303
309 359 45 3 177 34 80 14 251 325 302 284 11 349 322 287 311 354 320 262 234 226 202 182 186 166 188 233 229 217 238 205 222 239 241 241 226 225 243 252 279 289 298 296 289 288 290 291 292 281 291 299 308 304
24 32 37 20 64 28 260 8 33 7 342 300 356 346 305 304 252 333 259 235 276 236 201 189 157 193 245 306 276 256 220 211 224 226 239 232 236 242 249 258 252 260 284 293 274 273 276 280 289 298 285 299 301 300
39 51 59 57 59 246 356 14 21 12 26 18 11 293 313 308 334 39 255 260 256 211 198 202 186 199 224 240 252 255 232 208 234 243 232 227 239 246 232 249 255 254 247 266 275 270 264 264 271 285 284 287 290 287
62 333 67 324 335 40 23 341 344 30 272 326 340 298 338 347 354 297 258 278 252 231 217 202 214 222 232 261 273 267 217 202 218 238 239 205 235 266 267 252 252 253 243 243 259 257 256 251 255 266 277 278 274 277
60 312 87 192 286 123 199 266 228 242 203 298 240 290 9 55 9 257 239 221 227 213 201 203 213 222 241 222 255 280 279 200 192 232 260 200 212 227 251 261 271 280 226 221 237 247 253 251 250 257 270 277 287 308
320 278 310 280 113 113 4 18 36 119 241 215 253 23 42 308 253 248 255 219 228 236 217 197 188 200 232 236 222 238 217 186 198 218 275 245 231 226 228 240 252 256 246 214 216 222 240 251 253 255 260 271 270 265
170 171 188 217 168 124 211 237 187 221 231 198 135 234 218 215 249 285 266 305 255 253 268 276 275 242 263 276 294 291 271 277 287 290 280 263 242 238 234 238 247 262 263 243 226 229 228 235 243 249 253 257 266 268
67 72 117 291 307 228 227 210 231 223 188 178 202 240 245 247 306 323 321 324 317 309 286 284 298 327 281 270 245 229 214 198 186 258 267 270 287 270 208 229 242 248 249 246 260 257 217 217 228 236 248 252 261 254
310 321 124 161 215 247 227 198 277 338 303 305 312 307 295 279 273 290 317 330 343 311 251 212 250 277 279 310 304 298 210 203 208 220 248 259 253 266 243 242 243 248 240 230 243 260 271 275 286 296 292 269 255 254
89 243 272 241 257 261 265 308 338 4 22 0 350 198 266 310 311 264 250 242 267 261 268 290 288 231 241 256 237 284 300 216 221 228 238 260 273 273 271 267 262 255 243 238 237 239 246 260 251 251 252 257 264 272
8 204 242 290 285 293 17 31 326 360 334 8 297 333 310 326 284 282 225 131 15 264 40 89 286 294 227 246 251 246 262 273 257 248 240 252 258 259 259 258 258 248 240 238 238 240 240 238 245 245 245 249 250 253
33 14 338 320 315 333 335 0 359 331 349 319 280 233 232 220 249 279 286 205 212 216 245 257 260 268 273 271 268 274 285 260 262 278 288 299 303 297 287 257 233 233 231 234 237 233 235 234 236 242 242 242 249 253